User: anonymous   Login
Location: Caltech
(34.1382°N, 118.1253°W)
Time: 05:34:33
(UTC-07:00)
Language:

COSMOS 2428 - Orbit

View from above orbital plane
View from above orbital plane
View from above satellite
View from above satellite

Ground track
Ground track

The orbit data is extracted from the following two-line orbital elements,

1 31792U 07029A   17200.57204397 +.00000248 +00000-0 +16078-3 0  9996
2 31792 070.9204 344.1139 0011336 232.8407 127.1679 14.12290554518551
Epoch (UTC): 19 July 2017 13:43:44
Eccentricity: 0.0011336
inclination: 70.9204°
perigee height: 843 km
apogee height: 860 km
right ascension of ascending node: 344.1139°
argument of perigee: 232.8407°
revolutions per day: 14.12290554
mean anomaly at epoch: 127.1679°
orbit number at epoch: 51855

The dashed part of the orbit path shows where the satellite is in the earth's shadow,  

DLR